Waarnemingen

Advertentie
Mijn weer
Boulogne, Frankrijk (7002): temperatuur & dauwpunt: 27.05.2020 09:00:00 - 02.06.2020 09:00:00 (CEST)Boulogne, Frankrijk (7002): windsnelheid & windstoten: 27.05.2020 09:00:00 - 02.06.2020 09:00:00 (CEST)Boulogne, Frankrijk (7002): windrichting: 27.05.2020 09:00:00 - 02.06.2020 09:00:00 (CEST)Boulogne, Frankrijk (7002): luchtdruk: 27.05.2020 09:00:00 - 02.06.2020 09:00:00 (CEST)Boulogne, Frankrijk (7002): zicht: 27.05.2020 09:00:00 - 02.06.2020 09:00:00 (CEST)Boulogne, Frankrijk (7002): neerslag: 27.05.2020 09:00:00 - 02.06.2020 09:00:00 (CEST)
Datum & Tijd tt [°C] td [°C] ff [km/u] ff [kn] fx [km/u] fx [kn] dd ppp [hPa] vv [km] rr [mm]
02.06.2020 09:00:00 - - 14 8 27 15 NNO - - -
02.06.2020 08:00:00 - - 10 5 34 19 NO - 10 -
02.06.2020 07:00:00 - - 10 6 34 19 NO - - -
02.06.2020 06:00:00 - - 18 10 31 17 NNO - - -
02.06.2020 05:00:00 - - 8 4 31 17 NO - - -
02.06.2020 04:00:00 - - 17 9 31 17 NO - - -
02.06.2020 03:00:00 - - 13 7 31 17 NO - - -
02.06.2020 02:00:00 - - 18 10 35 19 NO - 20 -
02.06.2020 01:00:00 - - 15 8 44 24 NO - - -
02.06.2020 00:00:00 - - 15 8 39 21 NO - - -
01.06.2020 23:00:00 - - 21 11 44 24 NO - 10 -
01.06.2020 22:00:00 - - 19 10 40 21 NO - - -
01.06.2020 21:00:00 18,5 9,0 18 10 43 23 NO 1019,8 - -
01.06.2020 20:00:00 20,0 10,1 17 9 42 23 NO 1019,7 10 0,0
01.06.2020 19:00:00 20,9 9,8 19 10 42 23 NO 1019,9 - 0,0
01.06.2020 18:00:00 21,0 10,5 23 12 53 29 NNO 1020,2 - 0,0
01.06.2020 17:00:00 21,8 10,6 22 12 47 26 NNO 1020,3 10 0,0
01.06.2020 16:00:00 23,3 10,0 16 9 46 25 NO 1020,4 - 0,0
01.06.2020 15:00:00 22,7 8,4 17 9 43 23 NO 1020,5 - 0,0
01.06.2020 14:00:00 23,2 9,9 15 8 41 22 NO 1020,6 12 0,0
01.06.2020 13:00:00 22,9 7,4 18 10 37 20 ONO 1021,1 - 0,0
01.06.2020 12:00:00 22,3 8,4 13 7 32 17 ONO 1021,6 - 0,0
01.06.2020 11:00:00 20,7 7,7 13 7 29 15 NO 1021,5 12 0,0
01.06.2020 10:00:00 19,5 8,5 14 8 26 14 ONO 1021,4 - 0,0
01.06.2020 09:00:00 17,9 9,0 18 10 29 15 ONO 1021,4 - 0,0
01.06.2020 08:00:00 15,7 8,2 22 12 35 19 ONO 1021,1 - 0,0
01.06.2020 07:00:00 14,4 7,7 24 13 35 19 ONO 1021,0 - -
01.06.2020 06:00:00 - - 21 12 35 19 ONO - - -
01.06.2020 05:00:00 14,1 7,8 23 13 32 17 ONO 1020,9 10 -
01.06.2020 04:00:00 - - 20 11 33 18 O - - -
01.06.2020 03:00:00 14,5 9,5 21 11 34 18 O 1021,2 - -
01.06.2020 02:00:00 14,3 10,9 21 11 34 18 ONO 1021,5 18 -
01.06.2020 01:00:00 14,5 10,5 20 11 31 17 ONO 1021,6 - -
01.06.2020 00:00:00 14,7 9,7 14 8 31 17 NO 1021,7 - -
31.05.2020 23:00:00 15,2 9,8 15 8 35 19 NO 1021,5 14 0,0
31.05.2020 22:00:00 15,8 9,2 15 8 33 18 NO 1021,2 - 0,0
31.05.2020 21:00:00 17,0 8,9 15 8 39 21 NO 1021,2 - 0,0
31.05.2020 20:00:00 18,2 8,2 16 9 41 22 NO 1020,8 - 0,0
31.05.2020 19:00:00 19,5 7,2 18 10 45 25 NO 1020,5 - 0,0
31.05.2020 18:00:00 19,9 7,3 20 11 48 26 NO 1020,8 - 0,0
31.05.2020 17:00:00 20,5 7,1 20 11 50 27 NO 1020,8 14 0,0
31.05.2020 16:00:00 20,8 7,4 20 11 45 25 NO 1021,1 - 0,0
31.05.2020 15:00:00 21,2 5,5 18 10 47 26 NO 1021,3 - 0,0
31.05.2020 14:00:00 21,8 6,8 20 11 42 23 NNO 1021,3 14 0,0
31.05.2020 13:00:00 22,1 5,1 15 8 39 21 NO 1021,6 - 0,0
31.05.2020 12:00:00 21,8 3,9 15 8 31 17 O 1021,8 - 0,0
31.05.2020 11:00:00 21,3 4,8 13 7 26 14 O 1021,9 14 0,0
31.05.2020 10:00:00 20,1 5,7 11 6 29 15 O 1021,8 - 0,0
31.05.2020 09:00:00 18,5 6,0 13 7 34 19 O 1021,9 - 0,0
31.05.2020 08:00:00 16,8 5,7 16 9 36 19 O 1021,5 14 0,0
31.05.2020 07:00:00 15,5 5,4 18 10 36 19 O 1021,1 - 0,0
31.05.2020 06:00:00 15,3 5,2 19 11 40 22 O 1020,8 - 0,0
31.05.2020 05:00:00 15,6 5,5 21 11 40 22 O 1020,5 - 0,0
31.05.2020 04:00:00 15,5 7,0 24 13 39 21 O 1020,6 - 0,0
31.05.2020 03:00:00 15,1 8,6 25 14 37 20 ONO 1020,7 - 0,0
31.05.2020 02:00:00 15,7 9,1 27 14 39 21 ONO 1020,8 18 0,0
31.05.2020 01:00:00 15,9 9,1 24 13 36 20 ONO 1021,1 - 0,0
31.05.2020 00:00:00 16,4 8,4 22 12 39 21 ONO 1020,9 - 0,0
30.05.2020 23:00:00 16,9 7,8 24 13 44 24 ONO 1020,7 - 0,0
30.05.2020 22:00:00 17,4 7,7 21 11 37 20 NO 1020,6 - 0,0
30.05.2020 21:00:00 - - 16 9 38 20 NO - - -
30.05.2020 20:00:00 20,0 7,4 18 10 46 25 NO 1020,4 12 -
30.05.2020 19:00:00 21,5 5,8 24 13 45 24 NO 1020,1 - 0,0
30.05.2020 18:00:00 22,7 5,6 18 10 47 26 NO 1020,3 - 0,0
30.05.2020 17:00:00 22,8 6,1 21 11 39 21 NO 1020,5 - 0,0
30.05.2020 16:00:00 22,9 8,9 20 11 44 24 NNO 1020,8 - 0,0
30.05.2020 15:00:00 23,3 8,9 14 8 35 19 NO 1020,9 - 0,0
30.05.2020 14:00:00 22,3 6,1 9 5 26 14 N 1021,6 10 0,0
30.05.2020 13:00:00 22,6 6,8 9 5 31 17 ONO 1022,1 - 0,0
30.05.2020 12:00:00 21,7 4,7 10 6 32 17 ONO 1022,4 - 0,0
30.05.2020 11:00:00 21,0 4,1 11 6 28 15 NO 1022,6 10 0,0
30.05.2020 10:00:00 19,8 7,5 16 9 26 14 ONO 1022,7 - 0,0
30.05.2020 09:00:00 17,8 7,8 16 9 29 15 ONO 1022,7 - 0,0
30.05.2020 08:00:00 15,7 7,2 18 10 31 17 O 1022,6 - 0,0
30.05.2020 07:00:00 13,9 8,3 23 12 34 19 ONO 1022,7 - 0,0
30.05.2020 06:00:00 13,2 9,8 23 12 34 18 ONO 1022,8 - 0,0
30.05.2020 05:00:00 12,9 11,1 22 12 32 18 ONO 1022,9 - 0,0
30.05.2020 04:00:00 13,0 11,4 21 11 34 18 ONO 1023,2 - 0,0
30.05.2020 03:00:00 12,9 11,1 24 13 36 20 ONO 1023,5 - 0,0
30.05.2020 02:00:00 12,8 10,5 23 12 34 19 ONO 1023,8 - 0,0
30.05.2020 01:00:00 12,8 10,0 19 11 33 18 ONO 1024,1 - 0,0
30.05.2020 00:00:00 13,0 9,3 23 12 37 20 ONO 1024,2 - 0,0
29.05.2020 23:00:00 13,7 7,9 25 13 41 22 NO 1024,1 12 0,0
29.05.2020 22:00:00 14,3 6,6 22 12 37 20 NO 1024,0 - 0,0
29.05.2020 21:00:00 15,9 4,6 18 10 37 20 NO 1024,0 - 0,0
29.05.2020 20:00:00 17,4 3,6 18 10 40 22 NO 1024,1 10 0,0
29.05.2020 19:00:00 18,3 5,5 19 10 43 23 NO 1024,4 - 0,0
29.05.2020 18:00:00 19,2 5,3 19 11 45 24 NO 1024,9 - 0,0
29.05.2020 17:00:00 19,8 6,5 18 10 41 22 NO 1025,3 10 0,0
29.05.2020 16:00:00 20,8 7,4 16 9 44 24 NO 1025,5 - 0,0
29.05.2020 15:00:00 20,2 8,8 21 11 37 20 NNO 1026,0 - 0,0
29.05.2020 14:00:00 20,9 8,5 14 7 36 20 NNO 1026,5 13 0,0
29.05.2020 13:00:00 20,8 5,2 13 7 35 19 ONO 1027,3 - 0,0
29.05.2020 12:00:00 19,9 5,5 13 7 26 14 ONO 1027,9 - 0,0
29.05.2020 11:00:00 18,4 7,2 11 6 27 14 ONO 1028,3 15 0,0
29.05.2020 10:00:00 17,1 6,3 14 8 24 13 ONO 1028,4 - 0,0
29.05.2020 09:00:00 15,5 6,0 10 6 33 18 O 1028,4 - 0,0
29.05.2020 08:00:00 13,1 5,7 22 12 37 20 ONO 1028,4 13 0,0
29.05.2020 07:00:00 11,5 5,8 22 12 35 19 ONO 1028,5 - 0,0
29.05.2020 06:00:00 11,5 5,6 23 12 36 19 ONO 1028,6 - -
29.05.2020 05:00:00 11,9 6,4 26 14 38 21 ONO 1028,8 12 0,0
29.05.2020 04:00:00 12,2 7,5 25 13 39 21 ONO 1029,0 - -
29.05.2020 03:00:00 12,6 8,3 24 13 40 22 ONO 1029,5 - -
29.05.2020 02:00:00 12,8 9,1 21 11 36 20 ONO 1029,6 16 -
29.05.2020 01:00:00 12,9 8,8 22 12 32 17 ONO 1029,8 - -
29.05.2020 00:00:00 13,0 8,7 20 11 34 19 ONO 1030,1 - -
28.05.2020 23:00:00 13,4 8,5 18 10 36 19 NO 1030,4 12 0,0
28.05.2020 22:00:00 13,8 8,4 16 9 38 20 NO 1030,3 - 0,0
28.05.2020 21:00:00 14,9 8,6 18 10 44 24 NO 1030,1 - 0,0
28.05.2020 20:00:00 16,1 8,3 16 9 44 24 NO 1030,3 10 0,0
28.05.2020 19:00:00 17,3 8,2 19 10 41 22 NO 1030,7 - 0,0
28.05.2020 18:00:00 18,2 8,7 20 11 43 23 NO 1030,8 - 0,0
28.05.2020 17:00:00 18,6 7,7 21 12 45 24 NO 1031,2 10 0,0
28.05.2020 16:00:00 18,8 8,4 21 11 42 23 NNO 1031,6 - 0,0
28.05.2020 15:00:00 19,0 7,7 19 10 49 27 NO 1032,0 - 0,0
28.05.2020 14:00:00 20,4 3,6 16 9 37 20 ONO 1032,6 15 0,0
28.05.2020 13:00:00 19,0 3,2 22 12 42 23 ONO 1033,0 - 0,0
28.05.2020 12:00:00 17,8 4,0 22 12 40 22 ONO 1033,6 - 0,0
28.05.2020 11:00:00 16,7 4,0 24 13 41 22 ONO 1033,9 - 0,0
28.05.2020 10:00:00 15,4 5,0 18 10 34 19 ONO 1034,1 - 0,0
28.05.2020 09:00:00 13,9 5,5 16 8 35 19 ONO 1034,5 - 0,0
28.05.2020 08:00:00 12,7 6,5 21 11 36 19 ONO 1034,4 14 0,0
28.05.2020 07:00:00 12,1 8,8 19 11 31 17 ONO 1034,3 - 0,0
28.05.2020 06:00:00 11,8 10,2 10 5 24 13 NO 1034,3 - 0,0
28.05.2020 05:00:00 11,3 9,7 11 6 29 15 NO 1034,5 10 0,0
28.05.2020 04:00:00 11,0 9,1 11 6 30 16 NO 1034,6 - 0,0
28.05.2020 03:00:00 11,0 9,1 15 8 35 19 NO 1034,7 - 0,0
28.05.2020 02:00:00 11,5 9,6 12 6 29 16 NO 1035,1 15 0,0
28.05.2020 01:00:00 12,4 9,8 14 7 31 17 NO 1035,1 - 0,0
28.05.2020 00:00:00 13,4 9,6 13 7 28 15 NO 1035,2 - 0,0
27.05.2020 23:00:00 14,5 8,9 17 9 29 15 ONO 1035,1 18 0,0
27.05.2020 22:00:00 16,0 7,2 16 8 30 16 ONO 1034,8 - 0,0
27.05.2020 21:00:00 17,5 7,2 17 9 31 17 ONO 1034,4 - 0,0
27.05.2020 20:00:00 18,7 6,8 12 6 34 19 NO 1034,3 12 0,0
27.05.2020 19:00:00 20,1 7,1 14 8 30 16 NO 1034,4 - 0,0
27.05.2020 18:00:00 20,7 8,3 16 9 33 18 NO 1034,5 - 0,0
27.05.2020 17:00:00 21,0 8,6 14 8 34 18 NO 1034,6 12 0,0
27.05.2020 16:00:00 20,9 8,8 15 8 32 17 NO 1034,8 - 0,0
27.05.2020 15:00:00 20,4 9,0 17 9 32 17 NNO 1035,1 - 0,0
27.05.2020 14:00:00 20,2 10,3 17 9 33 18 NNO 1035,2 18 0,0
27.05.2020 13:00:00 20,1 9,6 16 9 31 17 NNO 1035,3 - 0,0
27.05.2020 12:00:00 20,5 10,0 11 6 24 13 NNO 1035,5 - 0,0
27.05.2020 11:00:00 19,6 8,9 11 6 23 12 NO 1035,4 14 0,0
27.05.2020 10:00:00 18,9 7,6 11 6 24 13 ONO 1035,5 - 0,0
27.05.2020 09:00:00 17,6 6,8 13 7 30 16 ONO 1035,5 - 0,0

tt = temperatuur
td = dauwpunt
ff = windsnelheid
fx = windstoten
dd = windrichting
ppp = luchtdruk
vv = zicht
rr = neerslag

Weerstations in de omgeving